Location: Newark
(35.6799°N, 139.7636°E)
Time: 22:45:06
(UTC+00:00)

Courier 1B Rocket - Pass Details

Date: 19 December 2019
Orbit: 920 x 1202 km, 28.2° (Epoch: 20 January)

Event Time Altitude Azimuth Distance (km) Brightness Sun altitude
Exits shadow 20:45:06 10° 260° (W) 3,056 7.1 -12.1°
Reaches altitude 10° 20:45:15 10° 259° (W) 3,011 7.0 -12.0°
Maximum altitude 20:51:59 39° 194° (SSW) 1,565 6.2 -10.8°
Drops below altitude 10° 20:58:19 10° 127° (SE) 2,814 8.8 -9.6°
Sets 21:01:05 0° 120° (ESE) 3,722 10.3 -9.0°
